COSMOS 1691 DEB, 43318

Orbit data source: Space-Track

COSMOS 1691 DEB, 43318 is space debris in LEO originally from a launch on Wed, 09 Oct 1985 UTC launched from the Plesetsk Missile And Space Complex (PKMTR). Debris objects in space refer to the collection of defunct objects orbiting the Earth. Examples of debris include non-operational satellites, rocket bodies, and fragments generated from explosions, collisions, or faulty payload assembly.

Loading next visibility...
Identifier
43318, 1985-094AC
Orbit
LEO
Last TLE update
1 year ago
Origin
Manufacturer
Unknown
Mission
Spacecraft
Bus & Motor
Unknown
Mass
Unknown
Launch date (UTC)
1985-10-09 (40 years ago)
Launch vehicle
Unknown
Launch site
Plesetsk Missile And Space Complex (PKMTR)
Object type
Payload
Rocket body
Debris
Shape & HBR
Unknown
Radar Cross Section
Small (<0.1 m²)

Expand to show TLE details & history

TLE from 1 year ago
0 COSMOS 1691 DEB
1 43318U 85094AC  24127.44030301  .00001074  00000-0  45894-2 0  9990
2 43318  82.5844 189.0068 0035168 166.8249 193.3780 12.81161065445772
Epoch: 2024-05-06T10:34Z
TLE epoch observation values (Epoch: 2024-05-06T10:34:02.18Z)
Latitude
0.00003°
Longitude
165.71954°
Altitude
1,365.968 km
Speed
7.163 km/s
True Right ascension
12h 36m 01s
True Declination
0° 00' 00"
Sunlit
Object was in full shadow at epoch
Visualization orbit readout
Latitude
20.45097°
Longitude
62.27393°
Altitude
1,335.938 km
Speed
7.191 km/s
Apparent Right ascension
07h 47m 26s
Apparent Declination
-8° 28' 39"
Sunlit
Object is in daylight
Visualization observer readout
Local Sidereal Time
23:07:42
Azimuth
68.79° E
Elevation
-35.559°
Doppler factor
1
Orbital elements
Apogee altitude
1,361.222 km
Perigee altitude
1,306.977 km
Semi-major axis
7,712.236 km
Eccentricity
0.00352
Inclination
82.5844°
RAAN
189.0068°
Arg. of periapsis
166.8249°
True anomaly
Unknown
Mean anomaly
193.378°
Eccentric anomaly
Unknown
Mean motion
3.20459 °/min
Orbital period
112.34 mins
BSTAR
0.0045894
Loading maneuver chart data...
Loading SW <> Apogee altitude chart data...
Loading historical data...
Loading historical data...
Loading historical data...
Loading historical data...
Loading historical data...
Loading historical data...
Loading historical data...

COSMOS 1691 DEB Visibility forecast

Observer location: undefined°, undefined°

Span
Click to sort rows by Start time (UTC) header in descending order
Start Az.
Max El. time (UTC)
Max El. Az.
Max El.
End time (UTC)
End Az.
14 mins2025-07-05 16:36:21.486Z4.366° NNE2025-07-05 16:43:21.486Z66.822° ENE35.391°2025-07-05 16:50:21.486Z143.933° SSE
12 mins2025-07-05 18:31:21.486Z328.714° NNW2025-07-05 18:36:21.486Z280.303° WNW29.763°2025-07-05 18:43:21.486Z214.16° SW
12 mins2025-07-06 05:14:21.486Z143.137° SSE2025-07-06 05:19:21.486Z91.757° ESE31.79°2025-07-06 05:26:21.486Z24.667° NE
13 mins2025-07-06 07:06:21.486Z219.982° SW2025-07-06 07:12:21.486Z278.147° WNW33.836°2025-07-06 07:19:21.486Z351.496° N
|